KCLE

Cleveland International

Airport
ICAO code
KCLE
Summary
ICAO Region
NAM
ICAO Territory
Location

Cleveland, Ohio,

Coordinates
41° 24' 37" N , 81° 51' 10" W
KCC
Airport WX
Lake Effect Snow
Metar
Observation
KCLE 091751Z 09008KT 10SM FEW031 06/M03 A3021 RMK AO2 SLP252 T00611028 10067 20022 58026
Station
Cleveland, Cleveland-Hopkins International Airport
Date/Time
2022-12-09 17:51:00
Wind direction
90°
Wind speed
08 kts
Lowest cloud amount
few clouds
Temperature
6.1°C
Dew point
-2.8°C
Humidity
52%
Weather condition
n/a

Description

Cleveland Hopkins International Airport is a public airport located 14 km southwest of the central business district of Cleveland, a city in Cuyahoga County, Ohio, United States.

Climatology

Humid continental climate (Köppen climate classification Dfa) - characterized by four seasons: cold, windy, snowy winters, mild springs, hot, humid summers, and crisp and relatively short autumns. Precipitation reaches its lowest in January and February and peaks in summer and latter half of spring.

Airport map

Aerial View

SKYbrary Partners:

Safety knowledge contributed by: